Other Public Products
Issued by NWS Grand Forks, ND

Home | Current Version | Previous Version | Graphics & Text | Print | Product List | Glossary On
Versions: 1 2 3 4 5 6 7 8 9 10 11 12 13 14 15 16 17 18 19 20 21 22 23 24 25 26 27 28 29 30 31 32 33 34 35 36 37 38 39 40 41 42 43 44 45 46 47 48 49 50
000
FPUS83 KFGF 290010
OPUFGF
PRAIRIE TO PINES WEATHER ROUNDUP
NATIONAL WEATHER SERVICE EASTERN NORTH DAKOTA/GRAND FORKS ND
700 PM CDT TUE JUL 28 2015

 **SATELLITE DATA USED TO AUGMENT SKY COVER AT AUTOMATED STATIONS**
 *****  WEATHER ACROSS EASTERN NORTH DAKOTA  *****

CITY           SKY/WX    TMP DP  RH WIND       PRES   REMARKS
GRAND FORKS    PTSUNNY   74  53  48 SW29G39   29.62S
6HR MIN TEMP:  74; 6HR MAX TEMP:  78;

GRAND FORKS AF CLOUDY    73  53  48 SW21G35   29.62F
GRAND CITY NWS   N/A     73 N/A N/A SW23        N/A
BUXTON         NOT AVBL
DEVILS LAKE    NOT AVBL
FARGO          PTSUNNY   77  52  41 SW21G32   29.73S
6HR MIN TEMP:  76; 6HR MAX TEMP:  81;

WAHPETON ARPT  CLEAR     77  46  33 W21       29.80R
$$

 *****  WEATHER ACROSS CENTRAL AND WESTERN NORTH DAKOTA  *****

CITY           SKY/WX    TMP DP  RH WIND       PRES   REMARKS
JAMESTOWN      MOSUNNY   71  47  42 W35G47    29.74R
6HR MIN TEMP:  70; 6HR MAX TEMP:  76;

BISMARCK       CLOUDY    69  47  45 W35G49    29.81R
6HR MIN TEMP:  69; 6HR MAX TEMP:  74;

MINOT          LGT RAIN  62  50  64 SW47G60   29.47F
6HR MIN TEMP:  62; 6HR MAX TEMP:  69; 6HR PCP: TRACE;

MINOT AFB      LGT RAIN  59  57  94 W40G53    29.43S SQUALL  FOG
6HR MIN TEMP:  61; 6HR MAX TEMP:  70; 6HR PCP:  0.66;

GARRISON         N/A     62  50  64 W41G56    29.65F
6HR MIN TEMP:  61; 6HR MAX TEMP:  69;

WILLISTON      RAIN      56  50  80 W41G62    29.74R
6HR MIN TEMP:  56; 6HR MAX TEMP:  62; 6HR PCP:  0.10;

DICKINSON      MOSUNNY   67  42  40 W43G53    29.86R
6HR MIN TEMP:  61; 6HR MAX TEMP:  67; 6HR PCP: TRACE;

HETTINGER      PTSUNNY   71  41  33 W39G54    29.97R
6HR MIN TEMP:  63; 6HR MAX TEMP:  71;

$$

 *****  OTHER OBSERVATIONS NORTHEAST NORTH DAKOTA  *****

CITY           SKY/WX    TMP DP  RH WIND       PRES   REMARKS
WALHALLA       FAIR      72  55  56 MISG      29.49F
LANGDON        CLOUDY    68  52  56 SW26G46   29.52F
CAVALIER       MOCLDY    72  54  53 SW14G28   29.52F
GRAFTON        CLOUDY    73  55  53 SW20G29   29.57F
CANDO          NOT AVBL
FORT TOTTEN      N/A     68  50  52 SW16      29.95S
ROLLA          CLOUDY    61  50  67 SW37G51   29.41F
RUGBY          NOT AVBL
 ***** THE ABOVE OBSERVATIONS ARE NON NWS ARE NOT QUALITY
        CONTROLLED AND MAY MIS-REPORT RAIN FOR SNOW...
$$

 *****  OTHER OBSERVATIONS SOUTHEAST NORTH DAKOTA *****

CITY           SKY/WX    TMP DP  RH WIND       PRES   REMARKS
COOPERSTOWN    NOT AVBL
VALLEY CITY    NOT AVBL
OAKES            N/A     75  54  46 W31G45    29.82S
GWINNER        FAIR      75  54  46 W20G39    29.81R
SHEYENNE NWR     N/A     76  52  42 W18       29.95S
BUFFALO        NOT AVBL
WYNDMERE         N/A     77  52  41 W18         N/A
 ***** THE ABOVE OBSERVATIONS ARE NON NWS ARE NOT QUALITY
       CONTROLLED AND MAY MIS-REPORT RAIN FOR SNOW...
$$

  *****  WEATHER ACROSS NORTHERN MINNESOTA  *****

CITY           SKY/WX    TMP DP  RH WIND       PRES   REMARKS
FLAG ISLAND    PTSUNNY   73  57  56 SW26G38   29.57F
WARROAD        MOSUNNY   73  59  60 SW20G29   29.61F
ROSEAU         PTSUNNY   73  57  56 SW22G30   29.61F
HALLOCK        CLOUDY    72  55  56 SW17G23   29.55F
THF RVR FALLS  NOT AVBL
HALSTAD        NOT AVBL
FOSSTON        MOSUNNY   72  57  60 SW15G30   29.72F
BAUDETTE       MOSUNNY   74  55  51 SW23G36   29.65R
6HR MIN TEMP:  73; 6HR MAX TEMP:  82;

WASKISH        MOSUNNY   75  61  60 SW17G26   29.69S
CROOKSTON      CLOUDY    73  55  53 SW23G31   29.66F
$$
  *****  WEATHER ACROSS CENTRAL AND WEST MINNESOTA  *****

CITY           SKY/WX    TMP DP  RH WIND       PRES   REMARKS
BEMIDJI        MOSUNNY   74  57  55 SW17G24   29.74R
PARK RAPIDS    SUNNY     76  56  49 W16G28    29.78R
6HR MIN TEMP:  76; 6HR MAX TEMP:  82;

WADENA         MOSUNNY   75  57  53 SW14G24   29.80R
DETROIT LAKES  MOSUNNY   75  52  43 W13G25    29.78F
MOORHEAD       MOSUNNY   75  52  43 SW21G28   29.75S
FERGUS FALLS   SUNNY     77  54  44 W24G30    29.79S
ELBOW LAKE     FAIR      75  56  50 W16G24    29.82S
MORRIS MN      SUNNY     77  57  50 W14       29.84R
STAPLES        SUNNY     75  55  50 SW14G24   29.81R
WHEATON        SUNNY     75  54  46 W14G22    29.84R
$$
  *****  WEATHER ELSEWHERE ACROSS MINNESOTA  *****

CITY           SKY/WX    TMP DP  RH WIND       PRES   REMARKS
DULUTH         PTSUNNY   80  68  66 S12       29.78S
6HR MIN TEMP:  79; 6HR MAX TEMP:  85;

INTRNTL FALLS  PTSUNNY   80  61  52 W15G24    29.65R
6HR MIN TEMP:  73; 6HR MAX TEMP:  82; 6HR PCP: TRACE;

ELY            PTSUNNY   81  63  54 S10G16    29.73F
CLOQUET        CLOUDY    79  66  65 S8        29.78S
BRAINERD       MOSUNNY   79  58  48 W17       29.79R
6HR MIN TEMP:  76; 6HR MAX TEMP:  81; 6HR PCP: TRACE;

HIBBING        CLOUDY    78  67  68 S9        29.74S
6HR MIN TEMP:  78; 6HR MAX TEMP:  83;

ALEXANDRIA     SUNNY     76  56  49 W17G24    29.86R
6HR MIN TEMP:  76; 6HR MAX TEMP:  80;

SAINT CLOUD    SUNNY     81  62  52 W16       29.81R
6HR MIN TEMP:  78; 6HR MAX TEMP:  83;

MINNEAPOLIS    PTSUNNY   82  72  71 SW14G22   29.81F
6HR MIN TEMP:  78; 6HR MAX TEMP:  84;

$$

  *****  WEATHER ACROSS SOUTH DAKOTA  *****

CITY           SKY/WX    TMP DP  RH WIND       PRES   REMARKS
SIOUX FALLS    MOSUNNY   78  57  48 W8        29.94R
6HR MIN TEMP:  74; 6HR MAX TEMP:  80;

BROOKINGS      NOT AVBL
WATERTOWN      SUNNY     77  53  43 W20G25    29.90R
6HR MIN TEMP:  74; 6HR MAX TEMP:  78;

HURON          SUNNY     79  53  40 W16       29.91R
6HR MIN TEMP:  74; 6HR MAX TEMP:  80;

SISSETON         N/A     78  51  38 W23G32    29.83R
ABERDEEN       SUNNY     78  49  35 W23G29    29.87R
6HR MIN TEMP:  74; 6HR MAX TEMP:  81;

MITCHELL       NOT AVBL
PIERRE         SUNNY     80  45  28 NW30G38   29.97R
6HR MIN TEMP:  77; 6HR MAX TEMP:  83;

MOBRIDGE       PTSUNNY   75  49  39 W22G37    29.90R
RAPID CITY     SUNNY     76  42  29 NW18G24   30.07R
6HR MIN TEMP:  74; 6HR MAX TEMP:  79;

$$

  *****  SOME WEATHER IN NEARBY STATES *****

CITY           SKY/WX    TMP DP  RH WIND       PRES   REMARKS
GLASGOW MT     PTSUNNY   69  45  41 W24G36    29.92R
6HR MIN TEMP:  57; 6HR MAX TEMP:  69; 6HR PCP:  0.04;

GREAT FALLS MT MOSUNNY   71  34  25 W13       30.10F
6HR MIN TEMP:  68; 6HR MAX TEMP:  76;

CHEYENNE WY    MOSUNNY   79  34  19 SE12      30.20S
6HR MIN TEMP:  74; 6HR MAX TEMP:  82;

SCOTTSBLUFF NE SUNNY     83  31  15 NW5       30.10S
6HR MIN TEMP:  76; 6HR MAX TEMP:  84;

OMAHA NE       PTSUNNY   79  71  76 N15G22    29.88F
6HR MIN TEMP:  78; 6HR MAX TEMP:  92; 6HR PCP: TRACE;

DES MOINES IA  TSTM      76  72  87 S18G25    29.88R FOG
DAVENPORT IA   CLOUDY    83  77  82 W6        29.90S HX  92
6HR MIN TEMP:  73; 6HR MAX TEMP:  85; 6HR PCP:  0.12;

CHICAGO IL     CLOUDY    87  70  56 SW7       29.90R HX  92
6HR MIN TEMP:  87; 6HR MAX TEMP:  91;

EAU CLAIRE WI  PTSUNNY   83  72  69 S9        29.82F
6HR MIN TEMP:  78; 6HR MAX TEMP:  86;

LA CROSSE WI   CLOUDY    84  73  69 S9        29.85F HX  90
6HR MIN TEMP:  75; 6HR MAX TEMP:  86;

$$

  *****  SOME NATIONAL WEATHER *****

CITY           SKY/WX    TMP DP  RH WIND       PRES   REMARKS
LA GUARDIA NY  PTCLDY    86  64  47 S9        29.94R
6HR MIN TEMP:  86; 6HR MAX TEMP:  94;

RALEIGH NC     LGT RAIN  84  71  65 CALM      29.99R
6HR MIN TEMP:  84; 6HR MAX TEMP:  90; 6HR PCP: TRACE;



USA.gov is the U.S. government's official web portal to all federal, state and local government web resources and services.